1531476000.67,28617,19.25,74004.5,14.85,3.15,3.19,0,*43
1531476001.9,28618,19.25,74004.3,14.83,3.07,2.91,0,*48
1531476003.16,28619,19.25,74004.3,14.79,3.37,3.49,0,*4B
1531476004.39,28620,19.25,74006.3,14.75,3.55,3.75,0,*46
1531476005.57,28621,19.25,74006.5,14.69,4.07,4.19,0,*47
1531476006.76,28622,19.25,74004.5,14.69,4.33,4.33,0,*4B
1531476007.95,28623,19.25,74006.5,14.69,4.33,4.41,0,*4F
1531476009.18,28624,19.25,74006.0,14.65,4.05,4.01,0,*45
1531476010.36,28625,19.25,74008.3,14.65,4.37,4.27,0,*41
1531476011.6,28626,19.25,74008.3,14.63,3.55,3.41,0,*40
1531476012.81,28627,19.25,74008.8,14.61,3.63,3.41,0,*46
1531476014.04,28628,19.25,74010.0,14.57,3.97,3.49,0,*4F
1531476015.31,28629,19.25,74008.3,14.55,3.07,2.51,0,*4D
1531476016.52,28630,19.25,74008.8,14.53,1.41,0.51,0,*71
1531476017.78,28631,19.25,74008.3,14.45,1.29,0.37,0,*79
1531476018.98,28632,19.25,74010.8,14.39,1.93,1.01,0,*44
1531476020.21,28633,19.25,74014.8,14.35,2.13,1.25,0,*44
1531476021.42,28634,19.25,74008.3,14.31,1.09,0.01,0,*48
1531476022.65,28635,19.25,74010.3,14.25,0.71,-0.49,0,*63
1531476023.9,28636,19.25,74014.5,14.21,0.63,-0.93,0,*60
1531476025.11,28637,19.25,74014.0,14.17,-0.23,-1.75,0,*74
1531476026.33,28638,19.25,74012.0,14.11,0.25,-1.21,0,*57
1531476027.56,28639,19.25,74014.3,14.03,0.05,-1.43,0,*63
1531476028.79,28640,19.25,74012.0,13.99,-0.07,-1.83,0,*4A
1531476030.0,28641,19.25,74012.8,13.97,-0.03,-1.83,0,*41
1531476031.21,28642,19.25,74010.8,13.93,0.17,-1.51,0,*51
1531476032.4,28643,19.25,74012.0,13.87,-0.73,-2.39,0,*77
1531476033.58,28644,19.25,74010.5,13.87,-0.61,-2.35,0,*7F
1531476034.82,28645,19.25,74014.0,13.81,-0.65,-2.03,0,*79
1531476036.03,28646,19.25,74010.0,13.79,-0.81,-1.95,0,*7B
1531476037.25,28647,19.25,74012.3,13.77,-1.59,-2.35,0,*49
1531476038.5,28648,19.25,74010.5,13.75,-0.85,-1.35,0,*77
1531476039.7,28649,19.25,74010.8,13.71,-0.53,-0.97,0,*40
1531476040.92,28650,19.25,74010.0,13.71,0.55,0.29,0,*4B
1531476042.16,28651,19.25,74010.0,13.71,1.13,0.91,0,*7A
1531476043.36,28652,19.25,74006.8,13.71,1.01,0.79,0,*7C
1531476044.59,28653,19.25,74010.0,13.71,1.63,1.13,0,*44
1531476045.82,28654,19.25,74004.3,13.71,1.51,0.63,0,*74
1531476047.02,28655,19.25,74004.8,13.71,1.85,0.43,0,*7E
1531476048.24,28656,19.25,74010.8,13.71,1.55,-0.19,0,*52
1531476049.47,28657,19.25,74006.8,13.71,0.91,-1.05,0,*56
1531476050.68,28658,19.25,74004.3,13.71,0.55,-1.51,0,*50
1531476051.89,28659,19.25,74008.5,13.71,-0.89,-3.03,0,*78
1531476053.13,28660,19.25,74004.8,13.69,-1.55,-3.55,0,*48
1531476054.35,28661,19.25,74002.5,13.65,-1.29,-2.91,0,*47
1531476055.6,28662,19.25,74008.0,13.65,-1.99,-3.23,0,*47
1531476056.83,28663,19.25,74006.3,13.67,-1.99,-2.95,0,*48
1531476058.05,28664,19.25,74004.5,13.67,-2.63,-3.31,0,*46
1531476059.25,28665,19.25,74004.5,13.67,-1.75,-2.31,0,*42
1531476060.47,28666,19.25,74004.3,13.67,-1.95,-2.35,0,*4B
1531476061.68,28667,19.25,74006.3,13.69,-0.65,-0.69,0,*41
1531476062.93,28668,19.25,74006.8,13.75,-1.13,-1.13,0,*4F
1531476064.11,28669,19.25,74006.3,13.79,-0.41,-0.29,0,*4C
1531476065.35,28670,19.25,74008.0,13.85,-0.37,-0.27,0,*48
1531476066.59,28671,19.25,74008.0,13.91,0.21,0.29,0,*45
1531476067.8,28672,19.25,74008.5,13.93,-0.77,-0.93,0,*46
1531476069.04,28673,19.25,74010.3,13.97,-2.59,-2.75,0,*47
1531476070.23,28674,19.25,74006.5,14.01,-3.23,-3.19,0,*4F
1531476071.47,28675,19.25,74004.8,14.03,-2.63,-2.31,0,*42
1531476072.66,28676,19.25,74006.8,14.05,-3.23,-2.83,0,*4B
1531476073.89,28677,19.25,74008.0,14.11,-4.13,-3.43,0,*46
1531476075.11,28678,19.25,74004.0,14.15,-4.33,-3.31,0,*4A
1531476076.36,28679,19.25,74008.3,14.19,-4.73,-3.51,0,*45
1531476077.61,28680,19.25,74008.8,14.19,-5.93,-4.61,0,*48
1531476078.85,28681,19.25,74004.8,14.23,-6.27,-4.81,0,*42
1531476080.09,28682,19.25,74010.0,14.23,-6.63,-4.93,0,*42
1531476081.31,28683,19.25,74010.5,14.23,-7.05,-5.35,0,*4F
1531476082.53,28684,19.25,74008.0,14.27,-6.23,-4.53,0,*48
1531476083.75,28685,19.25,74010.3,14.27,-5.85,-4.05,0,*45
1531476085.03,28686,19.25,74010.0,14.33,-6.97,-5.03,0,*44
1531476086.26,28687,19.25,74012.3,14.37,-7.83,-5.35,0,*40
1531476087.5,28688,19.25,74012.8,14.37,-8.51,-5.43,0,*4E
1531476088.78,28689,19.25,74012.5,14.45,-9.37,-5.31,0,*4E
1531476090.0,28690,19.25,74012.3,14.45,-10.89,-5.97,0,*77
1531476091.19,28691,19.25,74008.8,14.47,-10.85,-5.47,0,*75
1531476092.46,28692,19.25,74006.8,14.49,-10.41,-4.73,0,*76
1531476093.68,28693,19.25,74014.5,14.55,-9.79,-3.91,0,*42
1531476094.91,28694,19.25,74010.3,14.59,-10.49,-4.37,0,*79
1531476096.11,28695,19.25,74010.0,14.61,-9.05,-2.83,0,*4A
1531476097.35,28696,19.25,74008.3,14.67,-7.95,-1.51,0,*44
1531476098.59,28697,19.25,74006.8,14.71,-8.07,-1.59,0,*4E
1531476099.78,28698,19.25,74006.0,14.77,-7.19,-0.65,0,*79
1531476101.0,28699,19.25,74004.0,14.83,-4.99,1.59,0,*6B
1531476102.21,28700,19.25,74004.0,14.89,-5.69,0.97,0,*5D
1531476103.45,28701,19.25,74006.5,14.93,-5.81,1.09,0,*67
1531476104.67,28702,19.25,74010.3,15.05,-5.31,1.83,0,*63
1531476105.9,28703,19.25,74004.3,15.11,-4.85,2.65,0,*62
1531476107.16,28704,19.25,74004.0,15.15,-5.61,2.25,0,*6E
1531476108.42,28705,19.25,74006.5,15.25,-5.61,2.39,0,*61
1531476109.68,28706,19.25,74006.5,15.29,-5.07,3.07,0,*62
1531476110.91,28707,19.25,74006.3,15.33,-5.43,3.11,0,*6F
1531476112.12,28708,19.25,74004.5,15.39,-4.53,4.01,0,*6C
1531476113.3,28709,19.25,74004.0,15.47,-3.19,5.29,0,*66
1531476114.52,28710,19.25,74004.3,15.51,-2.91,5.33,0,*63
1531476115.72,28711,19.25,74008.0,15.57,-4.53,3.53,0,*6C
1531476116.96,28712,19.25,74006.3,15.59,-4.05,3.33,0,*64
1531476118.18,28713,19.25,74004.5,15.57,-4.01,2.95,0,*62
1531476119.39,28714,19.25,74006.8,15.57,-3.23,2.85,0,*63
1531476120.63,28715,19.25,74006.5,15.59,-1.43,3.89,0,*65
1531476121.87,28716,19.25,74002.8,15.59,-2.15,2.47,0,*65
1531476123.08,28717,19.25,74004.3,15.57,-2.19,1.85,0,*6B
1531476124.26,28718,19.25,74000.5,15.57,-0.61,3.25,0,*51
1531476125.47,28719,19.25,74000.0,15.57,-0.33,3.41,0,*55
1531476126.72,28720,19.25,74000.3,15.55,0.37,3.97,0,*7F
1531476127.9,28721,19.25,74000.0,15.53,-1.63,1.83,0,*62
1531476129.09,28722,19.25,74002.5,15.53,-3.39,-0.03,0,*48
1531476130.3,28723,19.25,73998.0,15.49,-2.67,0.43,0,*51
1531476131.51,28724,19.25,74000.8,15.45,-3.19,-0.11,0,*78
1531476132.73,28725,19.25,74000.3,15.39,-1.05,1.75,0,*63
1531476133.97,28726,19.25,74000.5,15.37,0.13,2.55,0,*74
1531476135.22,28727,19.25,74002.5,15.37,-1.09,1.17,0,*67
1531476136.42,28728,19.25,74002.0,15.35,0.43,2.43,0,*7A
1531476137.63,28729,19.25,74002.5,15.35,-0.45,1.13,0,*56
1531476138.83,28730,19.25,74000.0,15.31,-1.35,0.01,0,*6E
1531476140.06,28731,19.25,74000.5,15.29,-1.51,-0.27,0,*7D
1531476141.26,28732,19.25,73996.8,15.27,-0.65,0.13,0,*6C
1531476142.5,28733,19.25,73996.8,15.23,1.09,1.47,0,*4F
1531476143.73,28734,19.25,74004.0,15.23,1.25,1.25,0,*42
1531476144.92,28735,19.25,74002.5,15.23,-0.69,-0.77,0,*4C
1531476146.16,28736,19.25,74006.8,15.23,-1.43,-1.13,0,*45
1531476147.44,28737,19.25,74004.5,15.17,-2.03,-1.39,0,*4C
1531476148.65,28738,19.25,74006.3,15.15,-1.29,-0.53,0,*77
1531476149.87,28739,19.25,74002.8,15.13,-1.83,-0.81,0,*7F
1531476151.09,28740,19.25,74004.5,15.13,-3.59,-2.19,0,*47
1531476152.3,28741,19.25,74006.0,15.09,-5.73,-3.79,0,*44
1531476153.49,28742,19.25,74004.8,15.05,-5.55,-3.19,0,*49
1531476154.71,28743,19.25,74000.0,15.01,-5.43,-2.51,0,*46
1531476155.94,28744,19.25,74002.8,15.01,-5.97,-2.67,0,*4D
1531476157.16,28745,19.25,74000.3,14.95,-6.85,-3.27,0,*45
1531476158.41,28746,19.25,74002.5,14.95,-6.05,-2.07,0,*4D
1531476159.66,28747,19.25,74002.5,14.93,-5.31,-1.05,0,*4F
1531476160.92,28748,19.25,74000.0,14.91,-5.03,-0.23,0,*76
1531476162.11,28749,19.25,74000.5,14.93,-6.05,-0.81,0,*78
1531476163.32,28750,19.25,74002.3,14.93,-4.41,1.21,0,*64
1531476164.53,28751,19.25,74002.8,14.93,-3.23,2.69,0,*69
1531476165.8,28752,19.25,74002.0,14.95,-3.59,2.59,0,*62
1531476167.01,28753,19.25,73998.8,14.95,-4.17,2.35,0,*64
1531476168.26,28754,19.25,73998.3,14.99,-3.39,2.89,0,*63
1531476169.52,28755,19.25,73994.3,14.99,-3.43,2.73,0,*6A
1531476170.73,28756,19.25,73998.0,14.95,-1.55,4.27,0,*67
1531476171.96,28757,19.25,73998.0,14.99,-1.35,4.27,0,*6C
1531476173.2,28758,19.25,73992.5,14.99,-2.23,3.49,0,*68
1531476174.46,28759,19.25,73996.3,14.99,-3.63,2.39,0,*6A
1531476175.73,28760,19.25,73992.3,14.95,-3.67,2.09,0,*6B
1531476176.94,28761,19.25,73996.5,14.93,-4.41,1.47,0,*66
1531476178.14,28762,19.25,73998.3,14.89,-4.09,1.67,0,*60
1531476179.36,28763,19.25,73996.8,14.85,-3.11,2.25,0,*66
1531476180.58,28764,19.25,73996.5,14.83,-4.61,0.67,0,*53
1531476181.8,28765,19.25,73998.5,14.77,-5.07,-0.07,0,*43
1531476183.03,28766,19.25,73996.8,14.71,-4.05,0.63,0,*5A
1531476184.27,28767,19.25,73996.5,14.69,-3.51,0.83,0,*5A
1531476185.47,28768,19.25,73998.0,14.65,-3.31,0.67,0,*55
1531476186.68,28769,19.25,73998.0,14.61,-2.83,0.83,0,*52
1531476187.89,28770,19.25,73994.3,14.57,-2.27,1.09,0,*62
1531476189.13,28771,19.25,73994.3,14.53,-1.09,2.01,0,*63
1531476190.38,28772,19.25,73996.8,14.49,-2.51,0.37,0,*52
1531476191.58,28773,19.25,73994.0,14.47,-1.59,0.83,0,*59
1531476192.79,28774,19.25,73994.8,14.43,-1.29,0.95,0,*5A
1531476193.99,28775,19.25,73996.8,14.39,-1.55,0.29,0,*5A
1531476195.23,28776,19.25,73998.3,14.37,-0.61,1.09,0,*52
1531476196.44,28777,19.25,74000.0,14.35,-1.91,-0.57,0,*78
1531476197.66,28778,19.25,74002.0,14.31,-2.99,-2.07,0,*4F
1531476198.91,28779,19.25,73998.3,14.23,-2.51,-1.87,0,*42
1531476200.13,28780,19.25,74002.5,14.17,-1.71,-1.35,0,*4B
1531476201.32,28781,19.25,74002.3,14.13,-2.27,-2.19,0,*43
1531476202.53,28782,19.25,74000.3,14.09,-2.71,-2.87,0,*4F
1531476203.74,28783,19.25,74004.0,14.03,-2.79,-3.19,0,*4A
1531476204.97,28784,19.25,74000.0,13.99,-3.23,-3.67,0,*4E
1531476206.17,28785,19.25,74000.0,13.93,-3.31,-3.75,0,*45
1531476207.42,28786,19.25,74004.5,13.87,-2.47,-2.71,0,*46
1531476208.64,28787,19.25,74002.0,13.85,-1.51,-1.79,0,*4A
1531476209.91,28788,19.25,74004.0,13.85,-1.47,-1.47,0,*4F
1531476211.13,28789,19.25,74004.8,13.85,-0.41,-0.15,0,*4F
1531476212.35,28790,19.25,74004.3,13.85,0.55,0.97,0,*48
1531476213.57,28791,19.25,74002.0,13.89,0.67,1.59,0,*77
1531476214.8,28792,19.25,74000.5,13.91,-0.11,1.17,0,*5B
1531476216.03,28793,19.25,74004.8,13.93,0.55,2.25,0,*77
1531476217.23,28794,19.25,74000.8,13.97,0.09,2.09,0,*43
1531476218.44,28795,19.25,74000.0,13.97,1.59,3.81,0,*47
1531476219.69,28796,19.25,74000.3,14.03,0.55,3.07,0,*7D
1531476220.91,28797,19.25,74002.3,14.11,1.83,4.59,0,*49
1531476222.12,28798,19.25,74000.5,14.13,2.59,5.71,0,*4B
1531476223.33,28799,19.25,74000.5,14.21,2.31,5.41,0,*46
1531476224.58,28800,19.25,73998.0,14.25,0.75,4.05,0,*7E
1531476225.76,28801,19.25,73996.3,14.27,-0.15,3.59,0,*58
1531476226.96,28802,19.25,73996.8,14.31,0.37,4.07,0,*7D
1531476228.17,28803,19.25,73996.8,14.33,-0.41,3.63,0,*57
1531476229.41,28804,19.25,74000.8,14.35,-1.09,2.73,0,*6B
1531476230.64,28805,19.25,74002.8,14.35,-3.55,0.59,0,*5B
1531476231.85,28806,19.25,74002.8,14.31,-4.85,-0.57,0,*75
1531476233.1,28807,19.25,74002.5,14.25,-5.03,-0.73,0,*78
1531476234.34,28808,19.25,74002.3,14.21,-4.73,-0.45,0,*70
1531476235.54,28809,19.25,74000.0,14.19,-3.87,0.43,0,*5D
1531476236.75,28810,19.25,74002.8,14.17,-4.05,0.25,0,*56
1531476237.96,28811,19.25,74000.0,14.15,-4.21,0.09,0,*6D
1531476239.19,28812,19.25,74000.5,14.13,-3.71,0.71,0,*55
1531476240.4,28813,19.25,74002.3,14.09,-2.95,1.29,0,*68
1531476241.62,28814,19.25,74002.3,14.05,-2.35,1.85,0,*6F
1531476242.88,28815,19.25,74000.8,14.03,-2.03,2.13,0,*61
1531476244.12,28816,19.25,74002.5,14.03,-1.29,2.89,0,*6A
1531476245.34,28817,19.25,74004.8,14.05,-1.39,2.65,0,*6E
1531476246.57,28818,19.25,74000.8,14.03,-0.41,3.79,0,*55
1531476247.79,28819,19.25,74004.5,14.03,-0.93,2.95,0,*58
1531476249.03,28820,19.25,74006.8,13.99,-1.17,2.69,0,*68
1531476250.26,28821,19.25,74002.8,13.99,-2.19,1.59,0,*64
1531476251.5,28822,19.25,74000.0,13.97,-1.83,1.67,0,*64
1531476252.73,28823,19.25,74006.0,13.91,-2.19,1.17,0,*64
1531476253.95,28824,19.25,74000.8,13.89,-2.11,1.01,0,*65
1531476255.18,28825,19.25,74000.5,13.85,-2.23,0.79,0,*57
1531476256.41,28826,19.25,74002.3,13.81,-1.59,1.13,0,*63
1531476257.66,28827,19.25,73998.3,13.77,-0.89,1.63,0,*50
1531476258.89,28828,19.25,74000.0,13.71,-0.93,1.29,0,*5C
1531476260.09,28829,19.25,74000.8,13.71,-0.45,1.63,0,*58
1531476261.29,28830,19.25,74000.8,13.67,0.41,2.35,0,*7E
1531476262.49,28831,19.25,74004.3,13.65,0.43,2.27,0,*7C
1531476263.71,28832,19.25,74000.5,13.63,0.55,2.21,0,*78
1531476264.95,28833,19.25,74000.8,13.59,1.25,2.73,0,*41
1531476266.19,28834,19.25,74002.3,13.57,1.93,3.29,0,*4B
1531476267.42,28835,19.25,73998.5,13.55,2.13,3.29,0,*43
1531476268.63,28836,19.25,74000.0,13.55,2.35,3.29,0,*44
1531476269.85,28837,19.25,74002.3,13.55,2.81,3.63,0,*44
1531476271.09,28838,19.25,74004.3,13.57,3.29,3.97,0,*41
1531476272.32,28839,19.25,74000.3,13.55,3.97,4.49,0,*43
1531476273.55,28840,19.25,74002.3,13.55,4.19,4.67,0,*40
1531476274.75,28841,19.25,74000.3,13.55,4.19,4.49,0,*4D
1531476275.96,28842,19.25,74002.5,13.55,4.33,4.57,0,*49
1531476277.18,28843,19.25,74002.5,13.57,4.37,4.57,0,*4E
1531476278.41,28844,19.25,74000.8,13.57,4.01,4.11,0,*4E
1531476279.64,28845,19.25,74000.0,13.57,3.19,3.25,0,*41
1531476280.88,28846,19.25,74002.3,13.53,3.33,3.45,0,*48
1531476282.11,28847,19.25,74004.0,13.53,3.71,3.75,0,*4C
1531476283.36,28848,19.25,74002.0,13.51,3.33,3.45,0,*44
1531476284.6,28849,19.25,74002.8,13.51,3.93,4.05,0,*4C
1531476285.82,28850,19.25,74002.5,13.51,3.59,3.67,0,*41
1531476287.08,28851,19.25,74002.5,13.51,3.41,3.49,0,*45
1531476288.31,28852,19.25,74000.3,13.49,3.33,3.45,0,*46
1531476289.57,28853,19.25,74000.3,13.47,3.03,3.37,0,*4F
1531476290.77,28854,19.25,74000.0,13.47,3.85,4.07,0,*42
1531476291.98,28855,19.25,73998.8,13.47,4.23,4.45,0,*4E
1531476293.21,28856,19.25,74000.5,13.47,4.49,4.79,0,*4E
1531476294.44,28857,19.31,74006.5,13.47,4.27,4.59,0,*45
1531476295.64,28858,19.25,74000.0,13.47,4.19,4.49,0,*46
1531476296.85,28859,19.31,74006.3,13.45,4.45,4.75,0,*43
1531476298.06,28860,19.25,74000.5,13.45,3.41,3.59,0,*43
1531476299.26,28861,19.31,74004.0,13.43,3.93,4.23,0,*41
1531476300.5,28862,19.25,74004.0,13.43,3.71,3.93,0,*42
1531476301.73,28863,19.25,74000.5,13.43,3.03,3.25,0,*4B
1531476302.95,28864,19.25,74006.0,13.41,3.19,3.23,0,*43
1531476304.15,28865,19.25,74004.0,13.37,3.85,4.01,0,*41
1531476305.33,28866,19.25,74004.8,13.37,4.11,4.23,0,*48
1531476306.52,28867,19.25,74000.3,13.37,4.15,4.15,0,*48
1531476307.7,28868,19.25,74000.5,13.37,4.37,4.45,0,*42
1531476308.9,28869,19.25,73996.8,13.35,4.11,4.11,0,*44
1531476310.13,28870,19.25,73998.0,13.35,3.03,2.95,0,*42
1531476311.34,28871,19.25,74004.8,13.33,2.89,2.65,0,*49
1531476312.55,28872,19.25,74000.0,13.29,3.25,3.11,0,*44
1531476313.76,28873,19.25,74000.0,13.29,2.95,2.77,0,*4E
1531476314.96,28874,19.25,73998.8,13.25,3.49,3.25,0,*43
1531476316.17,28875,19.25,74000.0,13.25,3.93,3.71,0,*44
1531476317.4,28876,19.25,74002.5,13.25,2.89,2.55,0,*4A
1531476318.61,28877,19.25,74002.3,13.23,1.55,1.01,0,*4D
1531476319.86,28878,19.25,74006.5,13.17,2.47,2.09,0,*4E
1531476321.09,28879,19.25,74002.8,13.13,2.69,2.27,0,*4B
1531476322.33,28880,19.25,74002.0,13.11,3.19,2.81,0,*45
1531476323.51,28881,19.25,74004.3,13.11,3.29,2.99,0,*4E
1531476324.72,28882,19.25,74004.5,13.11,3.25,2.81,0,*48
1531476325.98,28883,19.25,74004.0,13.09,2.51,2.05,0,*4E
1531476327.21,28884,19.25,74002.8,13.07,2.85,2.47,0,*48
1531476328.45,28885,19.25,74004.3,13.05,2.95,2.59,0,*45
1531476329.68,28886,19.25,74010.5,13.03,2.01,1.09,0,*4B
1531476330.92,28887,19.25,74008.0,13.01,0.55,-0.03,0,*5D
1531476332.11,28888,19.25,74006.5,12.95,-0.53,-1.21,0,*74
1531476333.37,28889,19.25,74000.3,12.87,-2.75,-3.51,0,*45
1531476334.62,28890,19.25,74000.8,12.81,-2.11,-2.71,0,*4A
1531476335.85,28891,19.25,74002.3,12.73,-1.05,-1.79,0,*4B
1531476337.08,28892,19.25,74002.0,12.67,-0.53,-1.13,0,*73
1531476338.3,28893,19.25,74000.5,12.61,-0.57,-1.05,0,*77
1531476339.5,28894,19.25,74002.3,12.59,-1.71,-2.27,0,*4D
1531476340.71,28895,19.25,73996.0,12.55,-1.51,-1.99,0,*44
1531476341.95,28896,19.25,74002.8,12.49,-2.83,-3.51,0,*40
1531476343.19,28897,19.25,74000.5,12.41,-2.79,-3.43,0,*4F
1531476344.41,28898,19.25,73996.8,12.35,-2.55,-3.15,0,*4E
1531476345.65,28899,19.25,74000.0,12.29,-2.07,-2.83,0,*4B
1531476346.84,28900,19.25,74002.5,12.27,-2.19,-3.07,0,*46
1531476348.08,28901,19.25,74000.8,12.19,-2.71,-3.67,0,*42
1531476349.3,28902,19.25,73998.8,12.15,-2.51,-3.79,0,*40
1531476350.54,28903,19.25,74002.5,12.11,-2.03,-3.55,0,*4C
1531476351.75,28904,19.25,74000.8,12.07,-1.91,-3.87,0,*4B
1531476352.97,28905,19.25,74000.8,12.01,-2.19,-4.57,0,*45
1531476354.21,28906,19.25,74002.5,11.97,-2.19,-4.77,0,*48
1531476355.45,28907,19.25,74000.5,11.93,-2.07,-4.93,0,*48
1531476356.67,28908,19.25,74000.0,11.89,-2.07,-5.35,0,*41
1531476357.89,28909,19.25,74000.8,11.87,-2.31,-6.01,0,*4F
1531476359.14,28910,19.25,74002.8,11.81,-2.63,-7.31,0,*44
1531476360.35,28911,19.25,74000.0,11.79,-3.19,-8.67,0,*42
1531476361.59,28912,19.25,74002.0,11.73,-3.43,-9.57,0,*46
1531476362.81,28913,19.25,74000.0,11.69,-4.99,-11.51,0,*73
1531476364.09,28914,19.25,74002.8,11.67,-5.81,-12.53,0,*73
1531476365.32,28915,19.25,74002.8,11.63,-6.23,-12.43,0,*7C
1531476366.57,28916,19.25,74002.3,11.61,-6.77,-12.53,0,*7D
1531476367.83,28917,19.25,74000.0,11.61,-6.81,-11.55,0,*70
1531476369.05,28918,19.25,74000.3,11.59,-5.55,-9.15,0,*43
1531476370.28,28919,19.25,73996.8,11.63,-3.39,-5.93,0,*45
1531476371.52,28920,19.25,74002.0,11.69,-2.55,-4.93,0,*4F
1531476372.72,28921,19.25,73998.8,11.73,-2.83,-5.39,0,*4F
1531476373.99,28922,19.25,74000.0,11.87,-2.47,-5.69,0,*4A
1531476375.22,28923,19.25,73998.3,11.91,-3.75,-6.81,0,*49
1531476376.44,28924,19.25,73994.0,11.95,-5.47,-9.19,0,*43
1531476377.66,28925,19.25,74000.3,11.95,-4.29,-9.01,0,*42
1531476378.89,28926,19.25,74000.5,11.99,-6.43,-12.11,0,*78
1531476380.14,28927,19.25,74000.8,12.05,-7.87,-12.79,0,*78
1531476381.39,28928,19.25,74002.3,12.09,-9.49,-12.93,0,*73
1531476382.63,28929,19.25,74002.3,12.15,-9.61,-12.11,0,*7F
1531476383.87,28930,19.25,74004.3,12.19,-10.19,-11.97,0,*41
1531476385.09,28931,19.25,74006.0,12.27,-10.05,-11.85,0,*43
1531476386.3,28932,19.25,74000.8,12.31,-12.29,-14.23,0,*42
1531476387.53,28933,19.25,74002.0,12.35,-10.27,-11.97,0,*41
1531476388.77,28934,19.25,74000.0,12.41,-11.01,-12.29,0,*46
1531476390.0,28935,19.25,73998.8,12.43,-11.93,-13.07,0,*43
1531476391.23,28936,19.25,73998.8,12.51,-12.15,-12.97,0,*46
1531476392.48,28937,19.25,74000.8,12.53,-13.11,-13.61,0,*48
1531476393.74,28938,19.25,74002.0,12.59,-12.75,-12.75,0,*4A
1531476394.97,28939,19.25,74004.8,12.63,-11.15,-10.49,0,*4A
1531476396.24,28940,19.25,74006.8,12.69,-10.67,-11.07,0,*41
1531476397.46,28941,19.31,74008.8,12.75,-10.85,-11.11,0,*46
1531476398.71,28942,19.25,74006.0,12.79,-11.51,-11.23,0,*40
1531476400.0,28943,19.25,74000.5,12.87,-11.29,-11.07,0,*49
1531476401.25,28944,19.31,74004.8,12.91,-11.97,-11.45,0,*4A
1531476402.54,28945,19.25,74002.3,12.97,-12.71,-12.11,0,*44
1531476403.77,28946,19.25,73998.0,13.01,-13.07,-12.39,0,*43
1531476405.01,28947,19.31,74002.3,13.01,-13.23,-12.39,0,*44
1531476406.27,28948,19.25,74000.0,13.05,-13.55,-12.53,0,*42
1531476407.54,28949,19.25,73998.3,13.09,-11.55,-10.27,0,*4C
1531476408.81,28950,19.25,74004.3,13.17,-10.79,-9.49,0,*74
1531476410.06,28951,19.25,74000.8,13.21,-11.37,-10.05,0,*4B
1531476411.3,28952,19.25,74000.3,13.25,-12.93,-11.89,0,*44
1531476412.57,28953,19.25,74002.8,13.27,-12.71,-11.33,0,*4A
1531476413.77,28954,19.25,74000.5,13.33,-11.23,-9.71,0,*73
1531476415.01,28955,19.25,74002.5,13.35,-9.67,-8.07,0,*4D
1531476416.2,28956,19.25,74002.8,13.45,-9.05,-7.53,0,*43
1531476417.47,28957,19.31,74004.0,13.51,-9.53,-7.61,0,*45
1531476418.71,28958,19.25,74002.3,13.57,-9.37,-7.53,0,*4F
1531476419.97,28959,19.25,74002.3,13.63,-11.67,-9.83,0,*76
1531476421.16,28960,19.25,74006.3,13.67,-10.49,-8.63,0,*7A
1531476422.39,28961,19.25,74002.8,13.71,-11.89,-9.79,0,*7B
1531476423.63,28962,19.25,74006.8,13.73,-11.51,-9.31,0,*73
1531476424.85,28963,19.25,74006.5,13.79,-11.15,-8.81,0,*72
1531476426.12,28964,19.25,74004.3,13.81,-11.85,-9.41,0,*76
1531476427.38,28965,19.31,74008.8,13.85,-12.21,-9.57,0,*79
1531476428.61,28966,19.25,74004.3,13.89,-11.63,-8.85,0,*7D
1531476429.81,28967,19.25,74002.8,13.93,-11.15,-8.17,0,*7D
1531476431.03,28968,19.25,74004.5,13.97,-11.19,-8.11,0,*7C
1531476432.28,28969,19.25,74004.3,13.99,-12.11,-8.89,0,*79
1531476433.54,28970,19.31,74004.8,13.99,-13.61,-10.09,0,*46
1531476434.77,28971,19.31,74006.3,14.01,-12.97,-9.41,0,*7D
1531476435.98,28972,19.25,74006.8,14.03,-11.23,-7.49,0,*76
1531476437.18,28973,19.25,74006.3,14.09,-11.15,-7.53,0,*73
1531476438.45,28974,19.25,74006.8,14.15,-11.29,-7.73,0,*74
1531476439.71,28975,19.25,74006.8,14.15,-10.63,-6.81,0,*76
1531476440.94,28976,19.31,74006.0,14.19,-12.61,-8.71,0,*78
1531476442.18,28977,19.25,74006.0,14.19,-11.97,-8.17,0,*73
1531476443.41,28978,19.25,74000.8,14.23,-11.41,-7.65,0,*74
1531476444.66,28979,19.25,74004.8,14.23,-11.67,-8.03,0,*7E
1531476445.91,28980,19.25,74004.5,14.27,-11.81,-8.11,0,*77
1531476447.13,28981,19.31,74004.3,14.27,-11.89,-8.33,0,*7E
1531476448.35,28982,19.31,74006.0,14.31,-12.57,-8.97,0,*74
1531476449.58,28983,19.31,74008.3,14.31,-12.21,-8.51,0,*7E
1531476450.79,28984,19.25,74004.5,14.31,-13.69,-9.79,0,*7F
1531476452.03,28985,19.25,74000.5,14.31,-14.19,-10.41,0,*4D
1531476453.3,28986,19.25,74002.8,14.27,-14.51,-10.41,0,*45
1531476454.54,28987,19.31,74004.8,14.25,-14.37,-10.15,0,*47
1531476455.8,28988,19.25,74000.8,14.27,-12.53,-8.07,0,*74
1531476457.05,28989,19.25,74002.3,14.27,-11.37,-7.01,0,*7D
1531476458.29,28990,19.25,74000.5,14.31,-10.35,-5.89,0,*73
1531476459.48,28991,19.25,74002.0,14.35,-11.19,-6.39,0,*71
1531476460.7,28992,19.31,74004.8,14.35,-12.39,-7.31,0,*7A
1531476461.98,28993,19.25,74004.0,14.37,-12.11,-6.63,0,*75
1531476463.2,28994,19.25,74002.3,14.35,-12.47,-6.63,0,*73
1531476464.4,28995,19.25,74000.5,14.35,-12.43,-6.43,0,*74
1531476465.63,28996,19.31,74006.3,14.35,-11.41,-5.15,0,*76
1531476466.92,28997,19.25,74004.5,14.37,-11.63,-5.07,0,*76
1531476468.14,28998,19.25,74002.0,14.39,-11.77,-4.25,0,*73
1531476469.38,28999,19.31,74008.0,14.39,-7.57,-0.85,0,*79
1531476470.65,29000,19.25,74002.5,14.45,-6.93,-0.27,0,*7B
1531476471.91,29001,19.25,74002.8,14.49,-6.97,-0.23,0,*76
1531476473.12,29002,19.25,74004.3,14.53,-9.89,-2.59,0,*41
1531476474.37,29003,19.25,74004.5,14.55,-10.09,-2.67,0,*7B
1531476475.62,29004,19.25,74006.0,14.55,-10.19,-2.47,0,*7F
1531476476.84,29005,19.25,74006.3,14.57,-9.89,-1.87,0,*42
1531476478.02,29006,19.25,74004.3,14.57,-8.67,-0.61,0,*79
1531476479.27,29007,19.25,74000.0,14.59,-10.49,-2.11,0,*76
1531476480.55,29008,19.25,74004.8,14.55,-11.55,-2.71,0,*7F
1531476481.75,29009,19.31,74004.8,14.53,-10.05,-1.21,0,*7A
1531476482.97,29010,19.31,74002.0,14.49,-10.27,-1.21,0,*79
1531476484.19,29011,19.25,73998.3,14.47,-9.11,-0.29,0,*72
1531476485.38,29012,19.31,74000.5,14.47,-8.89,-0.19,0,*72
1531476486.59,29013,19.25,73996.3,14.43,-8.97,-0.23,0,*71
1531476487.82,29014,19.25,74002.0,14.41,-8.45,0.17,0,*51
1531476489.06,29015,19.25,73998.8,14.39,-7.39,1.33,0,*6C
1531476490.29,29016,19.25,74000.5,14.39,-7.65,0.59,0,*5B
1531476491.55,29017,19.25,74002.5,14.37,-7.43,0.63,0,*59
1531476492.79,29018,19.31,74000.3,14.35,-7.31,0.55,0,*54
1531476494.0,29019,19.25,74000.3,14.31,-6.85,0.63,0,*5A
1531476495.18,29020,19.25,73998.3,14.27,-6.01,1.05,0,*6A
1531476496.42,29021,19.25,73998.8,14.21,-5.43,1.29,0,*66
1531476497.65,29022,19.25,73996.5,14.19,-4.21,1.97,0,*6E
1531476498.88,29023,19.25,74002.3,14.19,-4.61,1.25,0,*62
1531476500.09,29024,19.25,74002.8,14.17,-4.29,1.43,0,*67
1531476501.3,29025,19.31,74002.5,14.13,-4.17,1.33,0,*68
1531476502.48,29026,19.25,74000.0,14.13,-3.83,1.41,0,*64
1531476503.75,29027,19.25,74000.5,14.11,-2.47,2.81,0,*61
1531476504.93,29028,19.25,74000.0,14.09,-0.81,4.27,0,*55
1531476506.13,29029,19.25,74002.3,14.13,-0.65,4.31,0,*52
1531476507.34,29030,19.31,74004.5,14.11,-1.55,3.29,0,*64
1531476508.6,29031,19.31,74004.3,14.11,-1.05,3.79,0,*65
1531476509.86,29032,19.25,74002.3,14.11,-1.35,3.45,0,*6A
1531476511.11,29033,19.31,74000.5,14.11,-0.85,3.75,0,*52